Malaga, Spain

9:48 AM CEST on March 28, 2017 (GMT +0200)
Malaga

Weather History for LEMG - January, 2013

Change the Weather History Date:

Monday, January 14, 2013

  Actual Average Record
Temperature  
Mean Temperature 54 °F -  
Max Temperature 61 °F 60 °F 70 °F (2016)
Min Temperature 48 °F 44 °F 39 °F (2000)
Degree Days  
Heating Degree Days 10    
Growing Degree Days 4 (Base 50)    
Moisture  
Dew Point 37 °F    
Average Humidity 54    
Maximum Humidity 76    
Minimum Humidity 27    
Precipitation  
Precipitation 0.00 in 0.10 in - ()
Sea Level Pressure  
Sea Level Pressure 30.17 in    
Wind  
Wind Speed 14 mph ()    
Max Wind Speed 22 mph    
Max Gust Speed 37 mph    
Visibility 6.8 miles    
Events      
Averages and records for this station are not official NWS values.
T = Trace of Precipitation, MM = Missing Value Source: Averaged Metar Reports

Daily Weather History Graph

Daily Weather History Graph

Search for Another Location

Airport or City:

Trip Planner

Search our weather history database for the weather conditions in past years. The results will help you decide how hot, cold, wet, or windy it might be!

Date:

Astronomy

Jan. 14, 2013 Rise Set
Actual Time 8:29 AM CET 6:24 PM CET
Civil Twilight 8:01 AM CET 6:52 PM CET
Nautical Twilight 7:29 AM CET 7:24 PM CET
Astronomical Twilight 6:58 AM CET 7:55 PM CET
Moon 10:01 AM CET (1/14) 9:47 PM CET (1/14)
Length of Visible Light 10h 51m
Length of Day
9h 55m
Waxing Crescent, 9% of the Moon is Illuminated
Jan 14
Waxing Crescent
Jan 19
First Quarter
Jan 27
Full
Feb 3
Last Quarter
Feb 10
New

Hourly Weather History & Observations

Time (CET) Temp. Dew Point Humidity Pressure Visibility Wind Dir Wind Speed Gust Speed Precip Events Conditions
12:00 AM 50.0 °F 42.8 °F 76% 30.09 in 6.2 mi WNW 11.5 mph - N/A   Partly Cloudy
12:30 AM 50.0 °F 42.8 °F 76% 30.09 in 6.2 mi WNW 11.5 mph - N/A   Scattered Clouds
1:00 AM 51 °F 43 °F 65% 30.12 in 12 mi WNW 11.5 mph - -   Partly Cloudy
1:00 AM 51.8 °F 42.8 °F 71% 30.09 in 6.2 mi WNW 11.5 mph - N/A   Scattered Clouds
1:30 AM 51.8 °F 42.8 °F 71% 30.09 in 6.2 mi WNW 13.8 mph - N/A   Scattered Clouds
2:00 AM 51.8 °F 41.0 °F 67% 30.12 in 6.2 mi WNW 12.7 mph 24.2 mph N/A   Scattered Clouds
2:30 AM 50.0 °F 41.0 °F 71% 30.12 in 6.2 mi WNW 12.7 mph - N/A   Partly Cloudy
3:00 AM 50.0 °F 41.0 °F 71% 30.12 in 6.2 mi WNW 12.7 mph - N/A   Partly Cloudy
3:30 AM 50.0 °F 39.2 °F 66% 30.12 in 6.2 mi WNW 16.1 mph - N/A   Partly Cloudy
4:00 AM 50.0 °F 39.2 °F 66% 30.12 in 6.2 mi WNW 17.3 mph 28.8 mph N/A   Partly Cloudy
4:30 AM 50.0 °F 39.2 °F 66% 30.12 in 6.2 mi WNW 16.1 mph 27.6 mph N/A   Partly Cloudy
5:00 AM 50.0 °F 37.4 °F 62% 30.15 in 6.2 mi WNW 17.3 mph - N/A   Partly Cloudy
5:30 AM 50.0 °F 37.4 °F 62% 30.15 in - WNW 16.1 mph 28.8 mph N/A   Clear
6:00 AM 50.0 °F 37.4 °F 62% 30.15 in - WNW 17.3 mph - N/A   Clear
6:30 AM 50.0 °F 37.4 °F 62% 30.15 in - NW 15.0 mph 28.8 mph N/A   Clear
7:00 AM 52 °F 34 °F 39% 30.17 in 12 mi NNW 15.0 mph - -  
7:00 AM 50.0 °F 33.8 °F 54% 30.15 in - NNW 15.0 mph 27.6 mph N/A   Clear
7:30 AM 48.2 °F 35.6 °F 62% 30.15 in - West 10.4 mph - N/A   Clear
8:00 AM 50.0 °F 33.8 °F 54% 30.18 in - West 13.8 mph - N/A   Clear
8:30 AM 48.2 °F 35.6 °F 62% 30.18 in 6.2 mi West 17.3 mph - N/A   Partly Cloudy
9:00 AM 48.2 °F 35.6 °F 62% 30.18 in 6.2 mi West 20.7 mph - N/A   Partly Cloudy
9:30 AM 48.2 °F 35.6 °F 62% 30.21 in 6.2 mi WNW 17.3 mph - N/A   Partly Cloudy
10:00 AM 50.0 °F 35.6 °F 58% 30.21 in 6.2 mi WNW 18.4 mph - N/A   Partly Cloudy
10:30 AM 51.8 °F 35.6 °F 54% 30.21 in - WNW 20.7 mph 36.8 mph N/A   Clear
11:00 AM 51.8 °F 35.6 °F 54% 30.24 in - WNW 19.6 mph - N/A   Clear
11:30 AM 53.6 °F 37.4 °F 54% 30.24 in - WNW 21.9 mph - N/A   Clear
12:00 PM 55.4 °F 37.4 °F 51% 30.24 in - WNW 17.3 mph 28.8 mph N/A   Clear
12:30 PM 55.4 °F 35.6 °F 47% 30.21 in - West 16.1 mph 27.6 mph N/A   Clear
1:00 PM 59 °F 34 °F 27% 30.22 in 25 mi West 18.4 mph - -   Scattered Clouds
1:00 PM 57.2 °F 35.6 °F 44% 30.21 in - West 18.4 mph 29.9 mph N/A   Clear
1:30 PM 57.2 °F 35.6 °F 44% 30.21 in - WNW 13.8 mph - N/A   Clear
2:00 PM 59.0 °F 37.4 °F 45% 30.18 in - WNW 11.5 mph - N/A   Clear
2:30 PM 60.8 °F 33.8 °F 36% 30.18 in - WNW 11.5 mph - N/A   Clear
3:00 PM 60.8 °F 33.8 °F 36% 30.18 in - WNW 11.5 mph - N/A   Clear
3:30 PM 59.0 °F 33.8 °F 39% 30.18 in 6.2 mi WNW 15.0 mph - N/A   Partly Cloudy
4:00 PM 59.0 °F 35.6 °F 42% 30.18 in 6.2 mi WNW 13.8 mph - N/A   Partly Cloudy
4:30 PM 59.0 °F 35.6 °F 42% 30.18 in 6.2 mi WNW 13.8 mph - N/A   Partly Cloudy
5:00 PM 59.0 °F 35.6 °F 42% 30.18 in - WNW 12.7 mph - N/A   Clear
5:30 PM 57.2 °F 33.8 °F 41% 30.18 in - NW 15.0 mph - N/A   Clear
6:00 PM 55.4 °F 32.0 °F 41% 30.18 in - WNW 16.1 mph - N/A   Clear
6:30 PM 53.6 °F 33.8 °F 47% 30.18 in - WNW 15.0 mph - N/A   Clear
7:00 PM 55 °F 33 °F 31% 30.20 in 25 mi WNW 17.3 mph - -   Scattered Clouds
7:00 PM 53.6 °F 33.8 °F 47% 30.18 in - WNW 17.3 mph - N/A   Clear
8:00 PM 53.6 °F 32.0 °F 44% 30.18 in - WNW 17.3 mph - N/A   Clear
9:00 PM 51.8 °F 33.8 °F 50% 30.21 in - WNW 16.1 mph - N/A   Clear
9:30 PM 51.8 °F 33.8 °F 50% 30.21 in - WNW 17.3 mph - N/A   Clear
10:00 PM 50.0 °F 35.6 °F 58% 30.21 in - NW 16.1 mph - N/A   Clear
10:30 PM 51.8 °F 35.6 °F 54% 30.21 in - WNW 18.4 mph - N/A   Clear
11:30 PM 51.8 °F 37.4 °F 58% 30.21 in - WNW 16.1 mph - N/A   Clear